KC5JIM Weather Reports


Display with metric or nautical units.
time (UTC)temp
F
wind
direction
speed
MPH
gust
MPH
rain 1hr
in
rain 24hr
in
rain mn
in
humidity
%
barometer
mb
20260904090741 76 338 0.0 2.0 0.00 0.00 0.00 73 1009.2
20260904090238 76 277 3.0 4.0 0.00 0.00 0.00 73 1009.1
20260904085734 76 297 0.0 2.0 0.00 0.00 0.00 72 1009.1
20260904085230 76 275 1.0 3.0 0.00 0.00 0.00 72 1009.1
20260904084726 76 356 2.0 3.0 0.00 0.00 0.00 72 1009.2
20260904084222 78 287 3.0 4.0 0.00 0.00 0.00 69 1008.8
20260904083718 78 93 2.0 4.0 0.00 0.00 0.00 67 1008.8
20260904083435 78 93 3.0 4.0 0.00 0.00 0.00 68 1009.1
20260904082710 78 137 0.0 2.0 0.00 0.00 0.00 68 1009.0
20260904082206 79 107 2.0 3.0 0.00 0.00 0.00 67 1009.1
20260904081702 79 116 2.0 4.0 0.00 0.00 0.00 67 1008.8
20260904081158 79 153 1.0 3.0 0.00 0.00 0.00 67 1009.1
20260904080914 79 87 2.0 4.0 0.00 0.00 0.00 67 1009.0
20260904080151 79 85 3.0 3.0 0.00 0.00 0.00 67 1009.1
20260904075646 78 97 4.0 4.0 0.00 0.00 0.00 67 1009.3
20260904075142 78 92 2.0 3.0 0.00 0.00 0.00 68 1009.2
20260904074638 78 89 0.0 1.0 0.00 0.00 0.00 69 1009.3
20260904074133 77 343 0.0 1.0 0.00 0.00 0.00 70 1009.2
20260904073629 78 291 0.0 2.0 0.00 0.00 0.00 69 1009.5
20260904073618 78 322 0.0 1.0 0.00 0.00 0.00 68 1009.3
20260904072621 78 124 0.0 1.0 0.00 0.00 0.00 67 1009.1
20260904072117 78 183 1.0 2.0 0.00 0.00 0.00 67 1009.1
20260904071613 78 183 2.0 2.0 0.00 0.00 0.00 67 1009.4
20260904071109 78 157 0.0 2.0 0.00 0.00 0.00 68 1009.3
20260904070605 78 164 0.0 2.0 0.00 0.00 0.00 68 1009.5
20260904070101 78 144 0.0 1.0 0.00 0.00 0.00 67 1009.2
20260904065557 78 283 0.0 0.0 0.00 0.00 0.00 68 1009.6
20260904065053 78 283 0.0 0.0 0.00 0.00 0.00 67 1009.6
20260904064549 78 242 0.0 1.0 0.00 0.00 0.00 67 1009.5
20260904064045 78 135 0.0 0.0 0.00 0.00 0.00 67 1009.6
20260904063541 79 131 0.0 1.0 0.00 0.00 0.00 66 1009.5
20260904063037 79 284 0.0 2.0 0.00 0.00 0.00 66 1009.4
20260904062533 79 287 1.0 2.0 0.00 0.00 0.00 65 1009.6
20260904062029 79 333 1.0 2.0 0.00 0.00 0.00 66 1009.3
20260904061525 79 345 1.0 3.0 0.00 0.00 0.00 66 1009.5
20260904061245 79 304 0.0 2.0 0.00 0.00 0.00 66 1009.5
20260904060738 79 309 1.0 2.0 0.00 0.00 0.00 66 1009.2
20260904060505 79 299 2.0 5.0 0.00 0.00 0.00 65 1009.4
20260904055509 79 301 1.0 4.0 0.00 0.00 0.00 65 1009.4
20260904055005 79 299 1.0 3.0 0.00 0.00 0.00 65 1009.4
20260904054725 79 276 1.0 2.0 0.00 0.00 0.00 65 1009.3
20260904053958 79 269 0.0 2.0 0.00 0.00 0.00 65 1009.3
20260904053453 79 249 0.0 2.0 0.00 0.00 0.00 64 1009.1
20260904052949 80 305 1.0 2.0 0.00 0.00 0.00 64 1009.2
20260904052445 80 282 1.0 2.0 0.00 0.00 0.00 63 1009.4
20260904051941 81 246 0.0 2.0 0.00 0.00 0.00 62 1009.0
20260904051437 80 224 0.0 1.0 0.00 0.00 0.00 62 1009.2
20260904050933 81 293 0.0 1.0 0.00 0.00 0.00 62 1009.3
20260904050430 81 269 0.0 2.0 0.00 0.00 0.00 62 1009.4
20260904045926 81 62 1.0 2.0 0.00 0.00 0.00 62 1009.5
20260904045421 81 276 2.0 3.0 0.00 0.00 0.00 61 1009.7
20260904044917 81 22 0.0 4.0 0.00 0.00 0.00 61 1009.9
20260904044634 81 3 2.0 5.0 0.00 0.00 0.00 61 1009.4
20260904043910 81 15 0.0 1.0 0.00 0.00 0.00 61 1009.5
20260904043630 81 245 0.0 4.0 0.00 0.00 0.00 61 1009.7
20260904042901 81 0 2.0 5.0 0.00 0.00 0.00 61 1009.6
20260904042358 81 0 3.0 4.0 0.00 0.00 0.00 61 1009.9
20260904041854 81 281 2.0 6.0 0.00 0.00 0.00 61 1009.9
20260904041350 81 303 1.0 8.0 0.00 0.00 0.00 61 1009.7
20260904040846 81 302 3.0 4.0 0.00 0.00 0.00 61 1009.8
20260904040602 81 297 3.0 6.0 0.00 0.00 0.00 61 1009.6
20260904035838 81 295 4.0 5.0 0.00 0.00 0.00 60 1009.5
20260904035334 82 283 5.0 11.0 0.00 0.00 0.00 60 1009.6
20260904034829 82 326 6.0 8.0 0.00 0.00 0.00 59 1009.5
20260904034325 82 317 2.0 10.0 0.00 0.00 0.00 59 1009.6
20260904033821 82 307 5.0 8.0 0.00 0.00 0.00 59 1009.6
20260904033317 82 317 3.0 11.0 0.00 0.00 0.00 59 1009.4
20260904032813 83 304 5.0 14.0 0.00 0.00 0.00 58 1009.3
20260904032309 83 353 7.0 8.0 0.00 0.00 0.00 57 1009.2
20260904031805 83 333 6.0 11.0 0.00 0.00 0.00 57 1009.3
20260904031521 83 337 4.0 9.0 0.00 0.00 0.00 56 1008.9
20260904030757 83 314 0.0 2.0 0.00 0.00 0.00 56 1008.9
20260904030746 83 225 2.0 3.0 0.00 0.00 0.00 55 1008.8
20260904025750 83 269 0.0 4.0 0.00 0.00 0.00 56 1008.9
20260904025246 83 275 2.0 3.0 0.00 0.00 0.00 56 1008.8
20260904024742 83 233 1.0 4.0 0.00 0.00 0.00 56 1008.3
20260904024238 83 252 1.0 3.0 0.00 0.00 0.00 56 1008.1
20260904023734 83 295 2.0 2.0 0.00 0.00 0.00 56 1008.1
20260904023454 83 208 2.0 3.0 0.00 0.00 0.00 55 1008.0
20260904022726 84 243 2.0 3.0 0.00 0.00 0.00 54 1007.9
20260904022222 84 75 2.0 6.0 0.00 0.00 0.00 54 1007.8
20260904021718 84 73 0.0 8.0 0.00 0.00 0.00 54 1007.7
20260904021214 84 37 2.0 6.0 0.00 0.00 0.00 55 1007.5
20260904020710 84 34 2.0 5.0 0.00 0.00 0.00 55 1007.7
20260904020655 84 35 6.0 9.0 0.00 0.00 0.00 55 1007.6
20260904015702 84 74 3.0 8.0 0.00 0.00 0.00 55 1007.6
20260904015158 84 61 4.0 14.0 0.00 0.00 0.00 55 1007.5
20260904014654 84 84 6.0 14.0 0.00 0.00 0.00 55 1007.2
20260904014150 85 23 6.0 8.0 0.00 0.00 0.00 54 1007.1
20260904013646 85 336 2.0 10.0 0.00 0.00 0.00 54 1007.1
20260904013142 85 56 6.0 12.0 0.00 0.00 0.00 54 1007.1
20260904012638 85 63 8.0 21.0 0.00 0.00 0.00 54 1007.0
20260904012134 85 52 7.0 15.0 0.00 0.00 0.00 55 1006.9
20260904011630 85 33 8.0 12.0 0.00 0.00 0.00 55 1006.9
20260904011126 85 37 8.0 12.0 0.00 0.00 0.00 54 1006.6
20260904010622 85 80 9.0 17.0 0.00 0.00 0.00 54 1006.6
20260904010118 86 77 6.0 16.0 0.00 0.00 0.00 52 1006.5
20260904005614 87 85 7.0 14.0 0.00 0.00 0.00 50 1006.3
20260904005331 87 55 8.0 14.0 0.00 0.00 0.00 50 1006.4
20260904004606 86 62 6.0 17.0 0.00 0.00 0.00 51 1006.4
20260904004322 87 66 4.0 17.0 0.00 0.00 0.00 52 1006.5
20260904003558 88 84 11.0 11.0 0.00 0.00 0.00 48 1006.0
20260904003054 88 64 7.0 14.0 0.00 0.00 0.00 47 1006.2
20260904002550 89 51 3.0 13.0 0.00 0.00 0.00 46 1005.9
20260904002046 89 104 6.0 15.0 0.00 0.00 0.00 45 1005.8
20260904001542 89 56 12.0 12.0 0.00 0.00 0.00 46 1005.7
20260904001259 88 86 3.0 11.0 0.00 0.00 0.00 48 1006.0
20260904000534 88 99 4.0 14.0 0.00 0.00 0.00 48 1005.8
20260904000030 88 105 8.0 13.0 0.00 0.00 0.00 49 1006.3
20260903235526 88 69 11.0 19.0 0.00 0.00 0.00 50 1006.2
20260903235022 88 101 8.0 15.0 0.00 0.00 0.00 49 1006.0
20260903234517 88 102 7.0 15.0 0.00 0.00 0.00 49 1006.2
20260903234013 90 103 14.0 16.0 0.00 0.00 0.00 47 1005.9
20260903233509 89 136 4.0 11.0 0.00 0.00 0.00 43 1005.9
20260903233005 89 105 3.0 14.0 0.00 0.00 0.00 43 1005.8
20260903232501 89 105 5.0 11.0 0.00 0.00 0.00 43 1005.7
20260903232218 89 77 5.0 8.0 0.00 0.00 0.00 43 1005.6
20260903231716 90 138 6.0 8.0 0.00 0.00 0.00 43 1005.7
20260903230949 89 101 2.0 7.0 0.00 0.00 0.00 43 1005.8
20260903230445 90 89 2.0 12.0 0.00 0.00 0.00 43 1005.8
20260903225941 90 98 5.0 9.0 0.00 0.00 0.00 43 1005.7
20260903225437 90 112 6.0 12.0 0.00 0.00 0.00 43 1005.7
20260903224933 89 109 2.0 6.0 0.00 0.00 0.00 43 1005.7
20260903224429 89 148 4.0 6.0 0.00 0.00 0.00 43 1005.6
20260903223925 90 167 3.0 7.0 0.00 0.00 0.00 42 1005.5
20260903223421 90 131 6.0 11.0 0.00 0.00 0.00 42 1005.5
20260903222917 90 141 5.0 12.0 0.00 0.00 0.00 41 1005.5
20260903222413 89 93 4.0 8.0 0.00 0.00 0.00 41 1005.5
20260903222133 89 97 5.0 9.0 0.00 0.00 0.00 42 1005.6
20260903221405 89 142 6.0 9.0 0.00 0.00 0.00 42 1005.9
20260903220901 90 113 5.0 7.0 0.00 0.00 0.00 42 1005.9
20260903220357 89 166 3.0 7.0 0.00 0.00 0.00 42 1006.3
20260903215853 90 71 6.0 11.0 0.00 0.00 0.00 42 1005.8
20260903215349 90 88 6.0 8.0 0.00 0.00 0.00 42 1006.1
20260903214341 90 139 4.0 11.0 0.00 0.00 0.00 41 1006.1
20260903213837 89 186 5.0 8.0 0.00 0.00 0.00 42 1006.3
20260903213554 88 182 2.0 8.0 0.00 0.00 0.00 43 1006.5
20260903212829 90 332 0.0 8.0 0.00 0.00 0.00 41 1006.2
20260903212325 88 44 2.0 6.0 0.00 0.00 0.00 42 1006.5
20260903211821 89 34 6.0 9.0 0.00 0.00 0.00 42 1006.7
20260903211317 89 51 3.0 11.0 0.00 0.00 0.00 41 1006.7
20260903210813 89 144 4.0 9.0 0.00 0.00 0.00 41 1006.6
20260903210309 89 183 4.0 6.0 0.00 0.00 0.00 41 1006.6
20260903205805 89 116 0.0 11.0 0.00 0.00 0.00 42 1006.9
20260903205301 88 355 1.0 5.0 0.00 0.00 0.00 44 1007.1
20260903204757 89 180 5.0 7.0 0.00 0.00 0.00 43 1006.9
20260903204517 89 92 5.0 10.0 0.00 0.00 0.00 43 1007.1
20260903203749 89 123 2.0 12.0 0.00 0.00 0.00 42 1007.1
20260903203508 88 196 3.0 7.0 0.00 0.00 0.00 44 1007.2
20260903203001 87 58 2.0 6.0 0.00 0.00 0.00 44 1007.4
20260903202237 87 45 2.0 7.0 0.00 0.00 0.00 43 1007.5
20260903201733 88 124 4.0 10.0 0.00 0.00 0.00 44 1007.8
20260903201229 88 72 5.0 9.0 0.00 0.00 0.00 45 1007.7
20260903200725 87 63 3.0 11.0 0.00 0.00 0.00 46 1008.2
20260903195717 88 0 0.0 7.0 0.00 0.00 0.00 45 1008.3
20260903195213 86 332 2.0 9.0 0.00 0.00 0.00 46 1008.5
20260903194709 86 241 0.0 3.0 0.00 0.00 0.00 46 1008.3
20260903194427 87 173 2.0 9.0 0.00 0.00 0.00 45 1008.5
20260903193702 87 155 4.0 9.0 0.00 0.00 0.00 46 1008.5
20260903193647 87 130 4.0 8.0 0.00 0.00 0.00 47 1008.8
20260903192915 86 192 4.0 8.0 0.00 0.00 0.00 47 1008.8
20260903192150 87 70 2.0 7.0 0.00 0.00 0.00 46 1008.5
20260903191645 86 41 1.0 7.0 0.00 0.00 0.00 47 1009.1
20260903191142 85 128 4.0 10.0 0.00 0.00 0.00 48 1009.3
20260903190638 86 109 3.0 9.0 0.00 0.00 0.00 47 1009.3
20260903190133 84 67 4.0 8.0 0.00 0.00 0.00 49 1009.7
20260903185629 84 25 4.0 5.0 0.00 0.00 0.00 48 1009.8
20260903185125 85 96 4.0 9.0 0.00 0.00 0.00 49 1009.6
20260903184843 85 154 6.0 9.0 0.00 0.00 0.00 49 1010.0
20260903184117 84 135 2.0 9.0 0.00 0.00 0.00 50 1009.9
20260903183613 85 103 10.0 10.0 0.00 0.00 0.00 49 1010.0
20260903183332 84 76 6.0 13.0 0.00 0.00 0.00 49 1010.3
20260903182605 85 103 6.0 13.0 0.00 0.00 0.00 49 1009.9
20260903182101 85 78 2.0 8.0 0.00 0.00 0.00 49 1010.3
20260903181821 83 158 2.0 5.0 0.00 0.00 0.00 50 1010.5
20260903181053 85 85 6.0 9.0 0.00 0.00 0.00 49 1010.6
20260903180549 85 111 4.0 9.0 0.00 0.00 0.00 50 1010.5
20260903180045 84 124 9.0 10.0 0.00 0.00 0.00 51 1010.4
20260903175802 84 68 3.0 6.0 0.00 0.00 0.00 51 1010.5
20260903175039 85 98 7.0 11.0 0.00 0.00 0.00 51 1010.5
20260903174758 84 68 3.0 7.0 0.00 0.00 0.00 51 1010.8
20260903174251 83 7 4.0 7.0 0.00 0.00 0.00 52 1011.0
20260903173526 83 60 2.0 6.0 0.00 0.00 0.00 52 1010.8
20260903173241 83 50 2.0 8.0 0.00 0.00 0.00 53 1011.1
20260903172518 83 104 4.0 8.0 0.00 0.00 0.00 52 1011.0
20260903172014 83 82 2.0 8.0 0.00 0.00 0.00 54 1011.0
20260903171730 83 114 4.0 7.0 0.00 0.00 0.00 54 1011.0
20260903171006 83 107 2.0 8.0 0.00 0.00 0.00 53 1011.1
20260903170502 82 126 1.0 3.0 0.00 0.00 0.00 55 1011.3
20260903165958 82 254 2.0 4.0 0.00 0.00 0.00 56 1011.2
20260903165454 82 65 3.0 3.0 0.00 0.00 0.00 54 1010.9
20260903164949 81 8 0.0 4.0 0.00 0.00 0.00 56 1011.4
20260903164446 82 97 2.0 6.0 0.00 0.00 0.00 56 1011.4
20260903163942 80 116 0.0 2.0 0.00 0.00 0.00 58 1011.6
20260903163438 81 119 2.0 6.0 0.00 0.00 0.00 58 1011.5
20260903162934 82 78 6.0 7.0 0.00 0.00 0.00 57 1011.4
20260903162654 80 145 2.0 3.0 0.00 0.00 0.00 57 1011.5
20260903161926 79 113 1.0 5.0 0.00 0.00 0.00 59 1011.8
20260903161422 80 22 2.0 5.0 0.00 0.00 0.00 58 1011.7
20260903160918 81 87 4.0 8.0 0.00 0.00 0.00 58 1011.4
20260903160413 80 255 1.0 5.0 0.00 0.00 0.00 58 1011.7
20260903160133 80 10 1.0 6.0 0.00 0.00 0.00 59 1011.9
20260903155405 79 57 0.0 4.0 0.00 0.00 0.00 60 1012.0
20260903154902 80 27 3.0 5.0 0.00 0.00 0.00 60 1011.7
20260903154357 79 306 2.0 2.0 0.00 0.00 0.00 60 1011.9
20260903153853 80 19 3.0 5.0 0.00 0.00 0.00 60 1011.9
20260903153349 79 348 0.0 5.0 0.00 0.00 0.00 61 1012.0
20260903152845 80 349 2.0 5.0 0.00 0.00 0.00 61 1011.7
20260903152603 79 343 0.0 2.0 0.00 0.00 0.00 62 1011.8
20260903151837 79 56 2.0 5.0 0.00 0.00 0.00 62 1011.8
20260903151333 80 350 2.0 4.0 0.00 0.00 0.00 62 1011.9
20260903150829 79 31 2.0 5.0 0.00 0.00 0.00 63 1011.8
20260903150545 79 295 0.0 4.0 0.00 0.00 0.00 63 1011.8
20260903145821 79 37 3.0 5.0 0.00 0.00 0.00 63 1012.0
20260903145317 79 356 1.0 7.0 0.00 0.00 0.00 64 1011.9
20260903144803 80 83 6.0 7.0 0.00 0.00 0.00 63 1011.2
20260903144259 79 313 0.0 6.0 0.00 0.00 0.00 65 1011.2
20260903144019 79 85 3.0 6.0 0.00 0.00 0.00 65 1011.2
20260903143512 79 352 1.0 3.0 0.00 0.00 0.00 66 1011.2
20260903142747 79 28 3.0 5.0 0.00 0.00 0.00 66 1011.2
20260903142243 79 102 2.0 4.0 0.00 0.00 0.00 66 1011.1
20260903141739 79 43 3.0 7.0 0.00 0.00 0.00 66 1011.2
20260903141235 79 335 2.0 4.0 0.00 0.00 0.00 66 1011.2
20260903140731 79 89 0.0 3.0 0.00 0.00 0.00 66 1011.0
20260903140227 79 77 0.0 2.0 0.00 0.00 0.00 66 1011.1
20260903135723 79 121 2.0 4.0 0.00 0.00 0.00 66 1011.2
20260903135218 79 70 2.0 4.0 0.00 0.00 0.00 66 1011.0
20260903134714 79 132 1.0 3.0 0.00 0.00 0.00 66 1010.8
20260903134210 79 108 2.0 6.0 0.00 0.00 0.00 66 1011.0
20260903133706 79 106 4.0 5.0 0.00 0.00 0.00 66 1010.7
20260903133202 79 88 2.0 4.0 0.00 0.00 0.00 66 1010.7
20260903132658 79 111 3.0 5.0 0.00 0.00 0.00 66 1010.6
20260903132154 79 100 3.0 5.0 0.00 0.00 0.00 66 1010.4
20260903131650 79 151 5.0 6.0 0.00 0.00 0.00 65 1010.6
20260903131146 79 147 2.0 6.0 0.00 0.00 0.00 65 1010.7
20260903130642 79 125 2.0 4.0 0.00 0.00 0.00 64 1010.3
20260903130358 79 81 2.0 5.0 0.00 0.00 0.00 64 1010.2
20260903125634 79 58 3.0 7.0 0.00 0.00 0.00 64 1010.2
20260903125130 79 40 2.0 5.0 0.00 0.00 0.00 64 1009.8
20260903124626 79 11 5.0 6.0 0.00 0.00 0.00 64 1009.8
20260903124122 79 43 2.0 5.0 0.00 0.00 0.00 64 1009.9
20260903123618 79 54 2.0 5.0 0.00 0.00 0.00 64 1009.9
20260903123114 79 315 0.0 2.0 0.00 0.00 0.00 64 1009.8
20260903122610 79 48 2.0 4.0 0.00 0.00 0.00 64 1009.7
20260903122106 79 118 2.0 4.0 0.00 0.00 0.00 64 1009.5
20260903121602 79 84 1.0 3.0 0.00 0.00 0.00 64 1009.7
20260903121058 79 356 1.0 3.0 0.00 0.00 0.00 63 1009.8
20260903120554 79 77 2.0 4.0 0.00 0.00 0.00 63 1009.7
20260903120313 79 99 2.0 4.0 0.00 0.00 0.00 63 1009.5
20260903115811 79 8 3.0 5.0 0.00 0.00 0.00 63 1009.5
20260903115044 79 46 4.0 6.0 0.00 0.00 0.00 64 1009.6
20260903114540 78 119 1.0 3.0 0.00 0.00 0.00 66 1009.6
20260903114036 78 330 1.0 3.0 0.00 0.00 0.00 67 1009.6
20260903113532 79 234 2.0 3.0 0.00 0.00 0.00 67 1009.5
20260903113028 79 167 2.0 3.0 0.00 0.00 0.00 66 1009.4
20260903112524 79 162 3.0 4.0 0.00 0.00 0.00 66 1009.4
20260903112241 79 177 2.0 4.0 0.00 0.00 0.00 66 1009.4
20260903111516 79 207 2.0 4.0 0.00 0.00 0.00 66 1009.5
20260903111232 79 198 2.0 6.0 0.00 0.00 0.00 66 1009.5
20260903110508 79 197 2.0 4.0 0.00 0.00 0.00 66 1009.4
20260903110005 79 182 1.0 3.0 0.00 0.00 0.00 66 1009.5
20260903105501 79 214 3.0 4.0 0.00 0.00 0.00 66 1009.5
20260903104957 79 267 1.0 2.0 0.00 0.00 0.00 65 1009.5
20260903104453 79 243 0.0 2.0 0.00 0.00 0.00 64 1009.5
20260903103949 79 49 0.0 3.0 0.00 0.00 0.00 64 1009.7
20260903103445 79 52 2.0 4.0 0.00 0.00 0.00 64 1009.8
20260903102941 79 76 2.0 6.0 0.00 0.00 0.00 64 1009.8
20260903102437 79 44 1.0 3.0 0.00 0.00 0.00 64 1009.7
20260903101933 80 56 2.0 7.0 0.00 0.00 0.00 64 1009.9
20260903101429 80 65 2.0 6.0 0.00 0.00 0.00 64 1009.9
20260903100925 80 65 2.0 6.0 0.00 0.00 0.00 64 1009.9
20260903100421 80 63 4.0 8.0 0.00 0.00 0.00 64 1009.8
20260903095917 80 40 2.0 6.0 0.00 0.00 0.00 64 1010.1
20260903095412 80 92 0.0 8.0 0.00 0.00 0.00 64 1009.9
20260903094908 80 76 2.0 6.0 0.00 0.00 0.00 64 1009.9
20260903094404 80 72 3.0 7.0 0.00 0.00 0.00 64 1009.7
20260903093900 80 73 3.0 8.0 0.00 0.00 0.00 64 1009.4
20260903093356 80 96 8.0 10.0 0.00 0.00 0.00 64 1009.8
20260903092852 80 75 3.0 8.0 0.00 0.00 0.00 64 1009.5
20260903092348 80 23 4.0 6.0 0.00 0.00 0.00 64 1009.5
20260903091844 80 65 2.0 8.0 0.00 0.00 0.00 64 1009.6
20260903091340 80 11 6.0 10.0 0.00 0.00 0.00 64 1009.6